Time,TemperatureF,DewpointF,PressureIn,WindDirection,WindDirectionDegrees,WindSpeedMPH,WindSpeedGustMPH,Humidity,HourlyPrecipIn,Conditions,Clouds,dailyrainin,SoftwareType,DateUTC
2013-08-12 00:01:00,59.0,46.8,29.14,North,0,0.0,0.0,64,0.00,,,0.00,meteohub,2013-08-12 04:01:00,
2013-08-12 00:02:00,59.0,46.8,29.14,North,0,0.0,0.0,64,0.00,,,0.00,meteohub,2013-08-12 04:02:00,
2013-08-12 00:04:00,59.0,46.8,29.14,North,0,0.0,0.0,64,0.00,,,0.00,meteohub,2013-08-12 04:04:00,
2013-08-12 00:09:00,59.0,46.4,29.14,North,0,0.0,0.0,63,0.00,,,0.00,meteohub,2013-08-12 04:09:00,
2013-08-12 00:14:00,59.0,46.4,29.14,North,0,0.0,0.0,63,0.00,,,0.00,meteohub,2013-08-12 04:14:00,
2013-08-12 00:19:00,58.8,46.2,29.14,North,0,0.0,0.0,63,0.00,,,0.00,meteohub,2013-08-12 04:19:00,
2013-08-12 00:24:00,58.6,46.0,29.14,North,0,0.0,0.0,63,0.00,,,0.00,meteohub,2013-08-12 04:24:00,
2013-08-12 00:29:00,58.5,45.5,29.14,North,0,0.0,0.0,62,0.00,,,0.00,meteohub,2013-08-12 04:29:00,
2013-08-12 00:34:00,58.3,45.3,29.14,North,0,0.0,0.0,62,0.00,,,0.00,meteohub,2013-08-12 04:34:00,
2013-08-12 00:39:00,58.1,45.5,29.14,North,0,0.0,0.0,63,0.00,,,0.00,meteohub,2013-08-12 04:39:00,
2013-08-12 00:44:00,58.1,45.1,29.14,North,0,0.0,0.0,62,0.00,,,0.00,meteohub,2013-08-12 04:44:00,
2013-08-12 00:49:00,57.9,45.0,29.14,North,0,0.0,0.0,62,0.00,,,0.00,meteohub,2013-08-12 04:49:00,
2013-08-12 00:54:00,57.9,44.6,29.14,North,0,0.0,0.0,61,0.00,,,0.00,meteohub,2013-08-12 04:54:00,
2013-08-12 00:59:00,57.7,44.4,29.14,North,0,0.0,0.0,61,0.00,,,0.00,meteohub,2013-08-12 04:59:00,
2013-08-12 01:04:00,57.7,44.4,29.14,North,0,0.0,0.0,61,0.00,,,0.00,meteohub,2013-08-12 05:04:00,
2013-08-12 01:09:00,57.6,44.2,29.14,North,0,0.0,0.0,61,0.00,,,0.00,meteohub,2013-08-12 05:09:00,
2013-08-12 01:14:00,57.4,43.7,29.14,North,0,0.0,0.0,60,0.00,,,0.00,meteohub,2013-08-12 05:14:00,
2013-08-12 01:19:00,57.4,43.7,29.14,North,0,0.0,0.0,60,0.00,,,0.00,meteohub,2013-08-12 05:19:00,
2013-08-12 01:24:00,57.6,43.3,29.14,North,0,0.0,0.0,59,0.00,,,0.00,meteohub,2013-08-12 05:24:00,
2013-08-12 01:29:00,57.7,43.0,29.14,North,0,0.0,0.0,58,0.00,,,0.00,meteohub,2013-08-12 05:29:00,
2013-08-12 01:34:00,57.9,43.2,29.14,North,0,0.0,0.0,58,0.00,,,0.00,meteohub,2013-08-12 05:34:00,
2013-08-12 01:39:00,57.9,43.2,29.14,North,0,0.0,0.0,58,0.00,,,0.00,meteohub,2013-08-12 05:39:00,
2013-08-12 01:44:00,58.1,43.3,29.14,North,0,0.0,0.0,58,0.00,,,0.00,meteohub,2013-08-12 05:44:00,
2013-08-12 01:49:00,58.1,43.3,29.14,North,0,0.0,0.0,58,0.00,,,0.00,meteohub,2013-08-12 05:49:00,
2013-08-12 01:54:00,57.9,42.8,29.14,North,0,0.0,0.0,57,0.00,,,0.00,meteohub,2013-08-12 05:54:00,
2013-08-12 01:59:00,57.9,42.8,29.14,North,0,0.0,0.0,57,0.00,,,0.00,meteohub,2013-08-12 05:59:00,
2013-08-12 02:04:00,58.1,42.4,29.14,North,0,0.0,0.0,56,0.00,,,0.00,meteohub,2013-08-12 06:04:00,
2013-08-12 02:09:00,58.1,42.4,29.14,North,0,0.0,0.0,56,0.00,,,0.00,meteohub,2013-08-12 06:09:00,
2013-08-12 02:14:00,58.3,42.6,29.14,North,0,0.0,0.0,56,0.00,,,0.00,meteohub,2013-08-12 06:14:00,
2013-08-12 02:19:00,58.1,42.4,29.14,North,0,0.0,0.0,56,0.00,,,0.00,meteohub,2013-08-12 06:19:00,
2013-08-12 02:24:00,58.1,42.4,29.14,North,0,0.0,0.0,56,0.00,,,0.00,meteohub,2013-08-12 06:24:00,
2013-08-12 02:30:00,57.9,42.3,29.14,North,0,0.0,0.0,56,0.00,,,0.00,meteohub,2013-08-12 06:30:00,
2013-08-12 02:35:00,57.7,42.1,29.14,North,0,0.0,0.0,56,0.00,,,0.00,meteohub,2013-08-12 06:35:00,
2013-08-12 02:40:00,57.7,42.1,29.14,North,0,0.0,0.0,56,0.00,,,0.00,meteohub,2013-08-12 06:40:00,
2013-08-12 02:45:00,57.7,42.1,29.14,North,0,0.0,0.0,56,0.00,,,0.00,meteohub,2013-08-12 06:45:00,
2013-08-12 02:50:00,57.6,41.9,29.14,North,0,0.0,0.0,56,0.00,,,0.00,meteohub,2013-08-12 06:50:00,
2013-08-12 02:55:00,57.6,41.9,29.14,North,0,0.0,0.0,56,0.00,,,0.00,meteohub,2013-08-12 06:55:00,
2013-08-12 03:00:00,57.4,41.9,29.14,North,0,0.0,0.0,56,0.00,,,0.00,meteohub,2013-08-12 07:00:00,
2013-08-12 03:05:00,57.4,41.9,29.14,North,0,0.0,0.0,56,0.00,,,0.00,meteohub,2013-08-12 07:05:00,
2013-08-12 03:10:00,57.4,41.9,29.14,North,0,0.0,0.0,56,0.00,,,0.00,meteohub,2013-08-12 07:10:00,
2013-08-12 03:15:00,57.4,41.9,29.14,North,0,0.0,0.0,56,0.00,,,0.00,meteohub,2013-08-12 07:15:00,
2013-08-12 03:20:00,57.4,41.9,29.14,North,0,0.0,0.0,56,0.00,,,0.00,meteohub,2013-08-12 07:20:00,
2013-08-12 03:25:00,57.6,41.5,29.14,North,0,0.0,0.0,55,0.00,,,0.00,meteohub,2013-08-12 07:25:00,
2013-08-12 03:30:00,57.7,41.7,29.14,North,0,0.0,0.0,55,0.00,,,0.00,meteohub,2013-08-12 07:30:00,
2013-08-12 03:35:00,57.7,41.7,29.14,North,0,0.0,0.0,55,0.00,,,0.00,meteohub,2013-08-12 07:35:00,
2013-08-12 03:40:00,57.9,41.9,29.14,North,0,0.0,0.0,55,0.00,,,0.00,meteohub,2013-08-12 07:40:00,
2013-08-12 03:45:00,58.1,42.1,29.14,North,0,0.0,0.0,55,0.00,,,0.00,meteohub,2013-08-12 07:45:00,
2013-08-12 03:50:00,58.1,41.5,29.14,North,0,0.0,0.0,54,0.00,,,0.00,meteohub,2013-08-12 07:50:00,
2013-08-12 03:55:00,58.1,42.1,29.14,North,0,0.0,0.0,55,0.00,,,0.00,meteohub,2013-08-12 07:55:00,
2013-08-12 04:00:00,58.3,41.7,29.14,North,0,0.0,0.0,54,0.00,,,0.00,meteohub,2013-08-12 08:00:00,
2013-08-12 04:05:00,58.3,41.7,29.14,North,0,0.0,0.0,54,0.00,,,0.00,meteohub,2013-08-12 08:05:00,
2013-08-12 04:10:00,58.5,41.9,29.14,North,0,0.0,0.0,54,0.00,,,0.00,meteohub,2013-08-12 08:10:00,
2013-08-12 04:15:00,58.5,41.9,29.14,North,0,0.0,0.0,54,0.00,,,0.00,meteohub,2013-08-12 08:15:00,
2013-08-12 04:20:00,58.5,41.9,29.14,North,0,0.0,0.0,54,0.00,,,0.00,meteohub,2013-08-12 08:20:00,
2013-08-12 04:25:00,58.5,41.9,29.14,North,0,0.0,0.0,54,0.00,,,0.00,meteohub,2013-08-12 08:25:00,
2013-08-12 04:30:00,58.5,41.9,29.14,North,0,0.0,0.0,54,0.00,,,0.00,meteohub,2013-08-12 08:30:00,
2013-08-12 04:35:00,58.6,42.1,29.14,North,0,0.0,0.0,54,0.00,,,0.00,meteohub,2013-08-12 08:35:00,
2013-08-12 04:40:00,58.6,42.1,29.14,North,0,0.0,0.0,54,0.00,,,0.00,meteohub,2013-08-12 08:40:00,
2013-08-12 04:45:00,58.6,42.1,29.14,North,0,0.0,0.0,54,0.00,,,0.00,meteohub,2013-08-12 08:45:00,
2013-08-12 04:50:00,58.6,42.1,29.14,North,0,0.0,0.0,54,0.00,,,0.00,meteohub,2013-08-12 08:50:00,
2013-08-12 04:55:00,58.6,42.1,29.14,North,0,0.0,0.0,54,0.00,,,0.00,meteohub,2013-08-12 08:55:00,
2013-08-12 05:00:00,58.5,41.9,29.14,North,0,0.0,0.0,54,0.00,,,0.00,meteohub,2013-08-12 09:00:00,
2013-08-12 05:05:00,58.5,41.9,29.14,North,0,0.0,0.0,54,0.00,,,0.00,meteohub,2013-08-12 09:05:00,
2013-08-12 05:10:00,58.5,41.9,29.14,North,0,0.0,0.0,54,0.00,,,0.00,meteohub,2013-08-12 09:10:00,
2013-08-12 05:15:00,58.5,41.9,29.14,North,0,0.0,0.0,54,0.00,,,0.00,meteohub,2013-08-12 09:15:00,
2013-08-12 05:20:00,58.5,41.9,29.14,North,0,0.0,0.0,54,0.00,,,0.00,meteohub,2013-08-12 09:20:00,
2013-08-12 05:25:00,58.5,41.9,29.14,North,0,0.0,0.0,54,0.00,,,0.00,meteohub,2013-08-12 09:25:00,
2013-08-12 05:31:00,58.6,42.1,29.14,North,0,0.0,0.0,54,0.00,,,0.00,meteohub,2013-08-12 09:31:00,
2013-08-12 05:36:00,58.5,41.9,29.14,North,0,0.0,0.0,54,0.00,,,0.00,meteohub,2013-08-12 09:36:00,
2013-08-12 05:41:00,58.5,41.9,29.14,North,0,0.0,0.0,54,0.00,,,0.00,meteohub,2013-08-12 09:41:00,
2013-08-12 05:46:00,58.6,42.1,29.14,North,0,0.0,0.0,54,0.00,,,0.00,meteohub,2013-08-12 09:46:00,
2013-08-12 05:51:00,58.5,41.9,29.14,North,0,0.0,0.0,54,0.00,,,0.00,meteohub,2013-08-12 09:51:00,
2013-08-12 05:56:00,58.5,41.9,29.14,North,0,0.0,0.0,54,0.00,,,0.00,meteohub,2013-08-12 09:56:00,
2013-08-12 06:01:00,58.5,41.9,29.14,North,0,0.0,0.0,54,0.00,,,0.00,meteohub,2013-08-12 10:01:00,
2013-08-12 06:06:00,58.3,41.7,29.14,North,0,0.0,0.0,54,0.00,,,0.00,meteohub,2013-08-12 10:06:00,
2013-08-12 06:11:00,58.3,41.7,29.14,North,0,0.0,0.0,54,0.00,,,0.00,meteohub,2013-08-12 10:11:00,
2013-08-12 06:16:00,58.3,41.7,29.14,North,0,0.0,0.0,54,0.00,,,0.00,meteohub,2013-08-12 10:16:00,
2013-08-12 06:21:00,58.5,41.4,29.14,North,0,0.0,0.0,53,0.00,,,0.00,meteohub,2013-08-12 10:21:00,
2013-08-12 06:26:00,58.5,41.4,29.14,North,0,0.0,0.0,53,0.00,,,0.00,meteohub,2013-08-12 10:26:00,
2013-08-12 06:31:00,58.8,41.7,29.14,North,0,0.0,0.0,53,0.00,,,0.00,meteohub,2013-08-12 10:31:00,
2013-08-12 06:36:00,58.8,41.7,29.14,North,0,0.0,0.0,53,0.00,,,0.00,meteohub,2013-08-12 10:36:00,
2013-08-12 06:41:00,58.8,41.7,29.14,North,0,0.0,0.0,53,0.00,,,0.00,meteohub,2013-08-12 10:41:00,
2013-08-12 06:46:00,58.8,41.7,29.14,North,0,0.0,0.0,53,0.00,,,0.00,meteohub,2013-08-12 10:46:00,
2013-08-12 06:51:00,58.8,41.7,29.14,North,0,0.0,0.0,53,0.00,,,0.00,meteohub,2013-08-12 10:51:00,
2013-08-12 06:56:00,58.8,41.7,29.14,North,0,0.0,0.0,53,0.00,,,0.00,meteohub,2013-08-12 10:56:00,
2013-08-12 07:01:00,59.0,41.9,29.14,North,0,0.0,0.0,53,0.00,,,0.00,meteohub,2013-08-12 11:01:00,
2013-08-12 07:06:00,59.0,41.9,29.14,North,0,0.0,0.0,53,0.00,,,0.00,meteohub,2013-08-12 11:06:00,
2013-08-12 07:11:00,59.0,41.9,29.14,North,0,0.0,0.0,53,0.00,,,0.00,meteohub,2013-08-12 11:11:00,
2013-08-12 07:16:00,59.0,41.9,29.14,North,0,0.0,0.0,53,0.00,,,0.00,meteohub,2013-08-12 11:16:00,
2013-08-12 07:21:00,59.0,41.9,29.14,North,0,0.0,0.0,53,0.00,,,0.00,meteohub,2013-08-12 11:21:00,
2013-08-12 07:26:00,59.2,41.5,29.14,North,0,0.0,0.0,52,0.00,,,0.00,meteohub,2013-08-12 11:26:00,
2013-08-12 07:31:00,59.2,41.5,29.14,North,0,0.0,0.0,52,0.00,,,0.00,meteohub,2013-08-12 11:31:00,
2013-08-12 07:36:00,59.4,41.7,29.14,North,0,0.0,0.0,52,0.00,,,0.00,meteohub,2013-08-12 11:36:00,
2013-08-12 07:41:00,59.5,41.9,29.14,North,0,0.0,0.0,52,0.00,,,0.00,meteohub,2013-08-12 11:41:00,
2013-08-12 07:46:00,59.5,41.9,29.14,North,0,0.0,0.0,52,0.00,,,0.00,meteohub,2013-08-12 11:46:00,
2013-08-12 07:52:00,59.5,41.9,29.14,North,0,0.0,0.0,52,0.00,,,0.00,meteohub,2013-08-12 11:52:00,
2013-08-12 07:57:00,59.7,42.1,29.14,North,0,0.0,0.0,52,0.00,,,0.00,meteohub,2013-08-12 11:57:00,
2013-08-12 08:02:00,59.9,42.3,29.14,North,0,0.0,0.0,52,0.00,,,0.00,meteohub,2013-08-12 12:02:00,
2013-08-12 08:07:00,60.1,42.4,29.14,North,0,0.0,0.0,52,0.00,,,0.00,meteohub,2013-08-12 12:07:00,
2013-08-12 08:12:00,60.3,42.6,29.14,North,0,0.0,0.0,52,0.00,,,0.00,meteohub,2013-08-12 12:12:00,
2013-08-12 08:17:00,60.3,42.6,29.14,North,0,0.0,0.0,52,0.00,,,0.00,meteohub,2013-08-12 12:17:00,
2013-08-12 08:22:00,60.3,42.6,29.14,North,0,0.0,0.0,52,0.00,,,0.00,meteohub,2013-08-12 12:22:00,
2013-08-12 08:27:00,60.4,42.8,29.14,North,0,0.0,0.0,52,0.00,,,0.00,meteohub,2013-08-12 12:27:00,
2013-08-12 08:32:00,60.6,43.0,29.14,North,0,0.0,0.0,52,0.00,,,0.00,meteohub,2013-08-12 12:32:00,
2013-08-12 08:37:00,60.6,43.0,29.14,North,0,0.0,0.0,52,0.00,,,0.00,meteohub,2013-08-12 12:37:00,
2013-08-12 08:42:00,60.8,43.0,29.14,North,0,0.0,0.0,52,0.00,,,0.00,meteohub,2013-08-12 12:42:00,
2013-08-12 08:47:00,61.0,43.2,29.14,North,0,0.0,0.0,52,0.00,,,0.00,meteohub,2013-08-12 12:47:00,
2013-08-12 08:52:00,61.2,43.0,29.14,North,0,0.0,0.0,51,0.00,,,0.00,meteohub,2013-08-12 12:52:00,
2013-08-12 08:57:00,61.3,43.0,29.14,North,0,0.0,0.0,51,0.00,,,0.00,meteohub,2013-08-12 12:57:00,
2013-08-12 09:02:00,61.5,43.2,29.14,North,0,0.0,0.0,51,0.00,,,0.00,meteohub,2013-08-12 13:02:00,
2013-08-12 09:07:00,61.5,43.2,29.14,North,0,0.0,0.0,51,0.00,,,0.00,meteohub,2013-08-12 13:07:00,
2013-08-12 09:12:00,61.7,43.3,29.14,North,0,0.0,0.0,51,0.00,,,0.00,meteohub,2013-08-12 13:12:00,
2013-08-12 09:17:00,61.7,43.3,29.14,North,0,0.0,0.0,51,0.00,,,0.00,meteohub,2013-08-12 13:17:00,
2013-08-12 09:22:00,61.7,43.3,29.14,North,0,0.0,0.0,51,0.00,,,0.00,meteohub,2013-08-12 13:22:00,
2013-08-12 09:27:00,61.9,43.5,29.14,North,0,0.0,0.0,51,0.00,,,0.00,meteohub,2013-08-12 13:27:00,
2013-08-12 09:32:00,62.1,43.7,29.14,North,0,0.0,0.0,51,0.00,,,0.00,meteohub,2013-08-12 13:32:00,
2013-08-12 09:37:00,62.2,44.4,29.14,North,0,0.0,0.0,52,0.00,,,0.00,meteohub,2013-08-12 13:37:00,
2013-08-12 09:42:00,62.6,44.8,29.14,North,0,0.0,0.0,52,0.00,,,0.00,meteohub,2013-08-12 13:42:00,
2013-08-12 09:47:00,62.4,44.6,29.14,North,0,0.0,0.0,52,0.00,,,0.00,meteohub,2013-08-12 13:47:00,
2013-08-12 09:52:00,62.8,45.0,29.14,North,0,0.0,0.0,52,0.00,,,0.00,meteohub,2013-08-12 13:52:00,
2013-08-12 09:57:00,63.3,45.3,29.14,North,0,0.0,0.0,52,0.00,,,0.00,meteohub,2013-08-12 13:57:00,
2013-08-12 10:02:00,63.7,46.2,29.14,North,0,0.0,0.0,53,0.00,,,0.00,meteohub,2013-08-12 14:02:00,
2013-08-12 10:07:00,64.4,46.9,29.14,North,0,0.0,0.0,53,0.00,,,0.00,meteohub,2013-08-12 14:07:00,
2013-08-12 10:13:00,64.8,47.7,29.14,North,0,0.0,0.0,54,0.00,,,0.00,meteohub,2013-08-12 14:13:00,
2013-08-12 10:18:00,65.1,48.6,29.14,North,0,0.0,0.0,55,0.00,,,0.00,meteohub,2013-08-12 14:18:00,
2013-08-12 10:23:00,65.5,49.3,29.14,North,0,0.0,0.0,56,0.00,,,0.00,meteohub,2013-08-12 14:23:00,
2013-08-12 10:28:00,65.8,50.2,29.14,North,0,0.0,0.0,57,0.00,,,0.00,meteohub,2013-08-12 14:28:00,
2013-08-12 10:33:00,66.0,50.4,29.14,North,0,0.0,0.0,57,0.00,,,0.00,meteohub,2013-08-12 14:33:00,
2013-08-12 10:38:00,66.7,51.4,29.14,North,0,0.0,0.0,58,0.00,,,0.00,meteohub,2013-08-12 14:38:00,
2013-08-12 10:43:00,66.9,52.2,29.14,North,0,0.0,0.0,59,0.00,,,0.00,meteohub,2013-08-12 14:43:00,
2013-08-12 10:48:00,67.5,52.7,29.14,North,0,0.0,0.0,59,0.00,,,0.00,meteohub,2013-08-12 14:48:00,
2013-08-12 10:53:00,67.8,52.9,29.14,North,0,0.0,0.0,59,0.00,,,0.00,meteohub,2013-08-12 14:53:00,
2013-08-12 10:58:00,68.2,53.2,29.14,North,0,0.0,0.0,59,0.00,,,0.00,meteohub,2013-08-12 14:58:00,
2013-08-12 11:03:00,68.5,54.1,29.14,North,0,0.0,0.0,60,0.00,,,0.00,meteohub,2013-08-12 15:03:00,
2013-08-12 11:08:00,69.3,54.3,29.14,North,0,0.0,0.0,59,0.00,,,0.00,meteohub,2013-08-12 15:08:00,
2013-08-12 11:13:00,69.6,55.6,29.14,North,0,0.0,0.0,61,0.00,,,0.00,meteohub,2013-08-12 15:13:00,
2013-08-12 11:18:00,70.0,55.9,29.14,North,0,0.0,0.0,61,0.00,,,0.00,meteohub,2013-08-12 15:18:00,
2013-08-12 11:23:00,70.3,56.3,29.14,North,0,0.0,0.0,61,0.00,,,0.00,meteohub,2013-08-12 15:23:00,
2013-08-12 11:28:00,70.7,57.0,29.14,North,0,0.0,0.0,62,0.00,,,0.00,meteohub,2013-08-12 15:28:00,
2013-08-12 11:33:00,70.7,57.0,29.14,North,0,0.0,0.0,62,0.00,,,0.00,meteohub,2013-08-12 15:33:00,
2013-08-12 11:39:00,71.1,57.7,29.14,North,0,0.0,0.0,63,0.00,,,0.00,meteohub,2013-08-12 15:39:00,
2013-08-12 11:44:00,71.2,57.9,29.14,North,0,0.0,0.0,63,0.00,,,0.00,meteohub,2013-08-12 15:44:00,
2013-08-12 11:49:00,71.4,58.1,29.14,North,0,0.0,0.0,63,0.00,,,0.00,meteohub,2013-08-12 15:49:00,
2013-08-12 11:54:00,71.8,58.5,29.14,North,0,0.0,0.0,63,0.00,,,0.00,meteohub,2013-08-12 15:54:00,
2013-08-12 11:59:00,72.3,59.0,29.14,North,0,0.0,0.0,63,0.00,,,0.00,meteohub,2013-08-12 15:59:00,
2013-08-12 12:04:00,72.7,59.7,29.14,North,0,0.0,0.0,64,0.00,,,0.00,meteohub,2013-08-12 16:04:00,
2013-08-12 12:09:00,73.2,60.3,29.14,North,0,0.0,0.0,64,0.00,,,0.00,meteohub,2013-08-12 16:09:00,
2013-08-12 12:14:00,73.4,60.4,29.14,North,0,0.0,0.0,64,0.00,,,0.00,meteohub,2013-08-12 16:14:00,
2013-08-12 12:19:00,73.9,61.0,29.14,North,0,0.0,0.0,64,0.00,,,0.00,meteohub,2013-08-12 16:19:00,
2013-08-12 12:24:00,73.9,61.0,29.14,North,0,0.0,0.0,64,0.00,,,0.00,meteohub,2013-08-12 16:24:00,
2013-08-12 12:29:00,74.3,61.3,29.14,North,0,0.0,0.0,64,0.00,,,0.00,meteohub,2013-08-12 16:29:00,
2013-08-12 12:34:00,74.3,61.3,29.14,North,0,0.0,0.0,64,0.00,,,0.00,meteohub,2013-08-12 16:34:00,
2013-08-12 12:39:00,74.7,61.7,29.14,North,0,0.0,0.0,64,0.00,,,0.00,meteohub,2013-08-12 16:39:00,
2013-08-12 12:44:00,74.7,61.7,29.14,North,0,0.0,0.0,64,0.00,,,0.00,meteohub,2013-08-12 16:44:00,
2013-08-12 12:49:00,75.0,61.5,29.14,North,0,0.0,0.0,63,0.00,,,0.00,meteohub,2013-08-12 16:49:00,
2013-08-12 12:54:00,75.2,61.3,29.14,North,0,0.0,0.0,62,0.00,,,0.00,meteohub,2013-08-12 16:54:00,
2013-08-12 12:59:00,74.8,61.0,29.14,North,0,0.0,0.0,62,0.00,,,0.00,meteohub,2013-08-12 16:59:00,
2013-08-12 13:04:00,75.0,61.2,29.14,North,0,0.0,0.0,62,0.00,,,0.00,meteohub,2013-08-12 17:04:00,
2013-08-12 13:09:00,75.4,61.5,29.14,North,0,0.0,0.0,62,0.00,,,0.00,meteohub,2013-08-12 17:09:00,
2013-08-12 13:14:00,75.6,60.6,29.14,North,0,0.0,0.0,60,0.00,,,0.00,meteohub,2013-08-12 17:14:00,
2013-08-12 13:19:00,75.7,61.3,29.14,North,0,0.0,0.0,61,0.00,,,0.00,meteohub,2013-08-12 17:19:00,
2013-08-12 13:24:00,75.9,61.0,29.14,North,0,0.0,0.0,60,0.00,,,0.00,meteohub,2013-08-12 17:24:00,
2013-08-12 13:29:00,76.1,61.2,29.14,North,0,0.0,0.0,60,0.00,,,0.00,meteohub,2013-08-12 17:29:00,
2013-08-12 13:34:00,76.3,61.9,29.14,North,0,0.0,0.0,61,0.00,,,0.00,meteohub,2013-08-12 17:34:00,
2013-08-12 13:39:00,76.5,61.5,29.14,North,0,0.0,0.0,60,0.00,,,0.00,meteohub,2013-08-12 17:39:00,
2013-08-12 13:44:00,76.6,62.2,29.14,North,0,0.0,0.0,61,0.00,,,0.00,meteohub,2013-08-12 17:44:00,
2013-08-12 13:50:00,77.0,62.6,29.14,North,0,0.0,0.0,61,0.00,,,0.00,meteohub,2013-08-12 17:50:00,
2013-08-12 13:55:00,77.2,63.1,29.14,North,0,0.0,0.0,62,0.00,,,0.00,meteohub,2013-08-12 17:55:00,
2013-08-12 14:00:00,76.8,61.9,29.14,North,0,0.0,0.0,60,0.00,,,0.00,meteohub,2013-08-12 18:00:00,
2013-08-12 14:05:00,76.8,62.8,29.14,North,0,0.0,0.0,62,0.00,,,0.00,meteohub,2013-08-12 18:05:00,
2013-08-12 14:10:00,77.4,62.8,29.14,North,0,0.0,0.0,61,0.00,,,0.00,meteohub,2013-08-12 18:10:00,
2013-08-12 14:15:00,77.7,62.8,29.14,North,0,0.0,0.0,60,0.00,,,0.00,meteohub,2013-08-12 18:15:00,
2013-08-12 14:20:00,77.7,62.2,29.14,North,0,0.0,0.0,59,0.00,,,0.00,meteohub,2013-08-12 18:20:00,
2013-08-12 14:27:00,76.6,62.2,29.14,North,0,0.0,0.0,61,0.00,,,0.00,meteohub,2013-08-12 18:27:00,
2013-08-12 14:32:00,76.1,62.1,29.14,North,0,0.0,0.0,62,0.00,,,0.00,meteohub,2013-08-12 18:32:00,
2013-08-12 14:37:00,75.6,62.6,29.14,North,0,0.0,0.0,64,0.00,,,0.00,meteohub,2013-08-12 18:37:00,
2013-08-12 14:42:00,75.9,62.8,29.14,North,0,0.0,0.0,64,0.00,,,0.00,meteohub,2013-08-12 18:42:00,
2013-08-12 14:47:00,77.0,63.0,29.14,North,0,0.0,0.0,62,0.00,,,0.00,meteohub,2013-08-12 18:47:00,
2013-08-12 14:52:00,77.0,63.0,29.14,North,0,0.0,0.0,62,0.00,,,0.00,meteohub,2013-08-12 18:52:00,
2013-08-12 14:57:00,76.8,62.8,29.14,North,0,0.0,0.0,62,0.00,,,0.00,meteohub,2013-08-12 18:57:00,
2013-08-12 15:02:00,76.3,61.9,29.14,North,0,0.0,0.0,61,0.00,,,0.00,meteohub,2013-08-12 19:02:00,
2013-08-12 15:07:00,76.1,62.1,29.14,North,0,0.0,0.0,62,0.00,,,0.00,meteohub,2013-08-12 19:07:00,
2013-08-12 15:12:00,76.1,63.0,29.14,North,0,0.0,0.0,64,0.00,,,0.00,meteohub,2013-08-12 19:12:00,
2013-08-12 15:17:00,76.1,62.6,29.14,North,0,0.0,0.0,63,0.00,,,0.00,meteohub,2013-08-12 19:17:00,
2013-08-12 15:22:00,76.1,63.0,29.14,North,0,0.0,0.0,64,0.00,,,0.00,meteohub,2013-08-12 19:22:00,
2013-08-12 15:27:00,75.9,61.9,29.14,North,0,0.0,0.0,62,0.00,,,0.00,meteohub,2013-08-12 19:27:00,
2013-08-12 15:32:00,76.6,62.6,29.14,North,0,0.0,0.0,62,0.00,,,0.00,meteohub,2013-08-12 19:32:00,
2013-08-12 15:37:00,77.2,63.7,29.14,North,0,0.0,0.0,63,0.00,,,0.00,meteohub,2013-08-12 19:37:00,
2013-08-12 15:42:00,77.4,63.3,29.14,North,0,0.0,0.0,62,0.00,,,0.00,meteohub,2013-08-12 19:42:00,
2013-08-12 15:47:00,77.2,63.1,29.14,North,0,0.0,0.0,62,0.00,,,0.00,meteohub,2013-08-12 19:47:00,
2013-08-12 15:52:00,76.5,62.4,29.14,North,0,0.0,0.0,62,0.00,,,0.00,meteohub,2013-08-12 19:52:00,
2013-08-12 15:57:00,75.6,62.1,29.14,North,0,0.0,0.0,63,0.00,,,0.00,meteohub,2013-08-12 19:57:00,
2013-08-12 16:02:00,75.0,62.4,29.14,North,0,0.0,0.0,65,0.00,,,0.00,meteohub,2013-08-12 20:02:00,
2013-08-12 16:07:00,74.7,62.6,29.14,North,0,0.0,0.0,66,0.00,,,0.00,meteohub,2013-08-12 20:07:00,
2013-08-12 16:12:00,74.3,62.6,29.14,North,0,0.0,0.0,67,0.00,,,0.00,meteohub,2013-08-12 20:12:00,
2013-08-12 16:17:00,74.1,63.0,29.14,North,0,0.0,0.0,68,0.00,,,0.00,meteohub,2013-08-12 20:17:00,
2013-08-12 16:22:00,73.9,63.1,29.14,North,0,0.0,0.0,69,0.00,,,0.00,meteohub,2013-08-12 20:22:00,
2013-08-12 16:27:00,73.6,62.4,29.14,North,0,0.0,0.0,68,0.00,,,0.00,meteohub,2013-08-12 20:27:00,
2013-08-12 16:32:00,73.2,61.5,29.14,North,0,0.0,0.0,67,0.00,,,0.00,meteohub,2013-08-12 20:32:00,
2013-08-12 16:37:00,73.2,62.1,29.14,North,0,0.0,0.0,68,0.00,,,0.00,meteohub,2013-08-12 20:37:00,
2013-08-12 16:42:00,73.2,62.1,29.14,North,0,0.0,0.0,68,0.00,,,0.00,meteohub,2013-08-12 20:42:00,
2013-08-12 16:47:00,73.0,61.9,29.14,North,0,0.0,0.0,68,0.00,,,0.00,meteohub,2013-08-12 20:47:00,
2013-08-12 16:52:00,72.5,61.3,29.14,North,0,0.0,0.0,68,0.00,,,0.00,meteohub,2013-08-12 20:52:00,
2013-08-12 16:57:00,72.3,61.5,29.14,North,0,0.0,0.0,69,0.00,,,0.00,meteohub,2013-08-12 20:57:00,
2013-08-12 17:02:00,72.3,61.5,29.14,North,0,0.0,0.0,69,0.00,,,0.00,meteohub,2013-08-12 21:02:00,
2013-08-12 17:07:00,71.8,61.0,29.14,North,0,0.0,0.0,69,0.00,,,0.00,meteohub,2013-08-12 21:07:00,
2013-08-12 17:12:00,71.6,61.3,29.14,North,0,0.0,0.0,70,0.00,,,0.00,meteohub,2013-08-12 21:12:00,
2013-08-12 17:17:00,71.2,61.3,29.14,North,0,0.0,0.0,71,0.00,,,0.00,meteohub,2013-08-12 21:17:00,
2013-08-12 17:22:00,71.1,61.2,29.14,North,0,0.0,0.0,71,0.00,,,0.00,meteohub,2013-08-12 21:22:00,
2013-08-12 17:27:00,70.7,61.2,29.14,North,0,0.0,0.0,72,0.00,,,0.00,meteohub,2013-08-12 21:27:00,
2013-08-12 17:32:00,70.7,61.2,29.14,North,0,0.0,0.0,72,0.00,,,0.00,meteohub,2013-08-12 21:32:00,
2013-08-12 17:37:00,70.7,61.2,29.14,North,0,0.0,0.0,72,0.00,,,0.00,meteohub,2013-08-12 21:37:00,
2013-08-12 17:42:00,70.5,61.0,29.14,North,0,0.0,0.0,72,0.00,,,0.00,meteohub,2013-08-12 21:42:00,
2013-08-12 17:47:00,70.3,61.3,29.14,North,0,0.0,0.0,73,0.00,,,0.00,meteohub,2013-08-12 21:47:00,
2013-08-12 17:52:00,70.3,61.3,29.14,North,0,0.0,0.0,73,0.00,,,0.00,meteohub,2013-08-12 21:52:00,
2013-08-12 17:59:00,70.3,61.3,29.14,North,0,0.0,0.0,73,0.00,,,0.00,meteohub,2013-08-12 21:59:00,
2013-08-12 18:04:00,70.2,61.2,29.14,North,0,0.0,0.0,73,0.00,,,0.00,meteohub,2013-08-12 22:04:00,
2013-08-12 18:09:00,69.6,60.6,29.14,North,0,0.0,0.0,73,0.00,,,0.00,meteohub,2013-08-12 22:09:00,
2013-08-12 18:14:00,69.4,60.4,29.14,North,0,0.0,0.0,73,0.00,,,0.00,meteohub,2013-08-12 22:14:00,
2013-08-12 18:19:00,69.3,59.9,29.14,North,0,0.0,0.0,72,0.00,,,0.00,meteohub,2013-08-12 22:19:00,
2013-08-12 18:24:00,68.9,59.5,29.14,North,0,0.0,0.0,72,0.00,,,0.00,meteohub,2013-08-12 22:24:00,
2013-08-12 18:29:00,68.7,59.4,29.14,North,0,0.0,0.0,72,0.00,,,0.00,meteohub,2013-08-12 22:29:00,
2013-08-12 18:34:00,67.8,58.8,29.14,North,0,0.0,0.0,73,0.00,,,0.00,meteohub,2013-08-12 22:34:00,
2013-08-12 18:39:00,67.1,58.1,29.14,North,0,0.0,0.0,73,0.00,,,0.00,meteohub,2013-08-12 22:39:00,
2013-08-12 18:44:00,66.4,57.4,29.14,North,0,0.0,0.0,73,0.00,,,0.00,meteohub,2013-08-12 22:44:00,
2013-08-12 18:49:00,65.8,56.5,29.14,North,0,0.0,0.0,72,0.00,,,0.00,meteohub,2013-08-12 22:49:00,
2013-08-12 18:54:00,65.3,55.6,29.14,North,0,0.0,0.0,71,0.00,,,0.00,meteohub,2013-08-12 22:54:00,
2013-08-12 18:59:00,65.1,55.4,29.14,North,0,0.0,0.0,71,0.00,,,0.00,meteohub,2013-08-12 22:59:00,
2013-08-12 19:04:00,64.8,54.3,29.14,North,0,0.0,0.0,69,0.00,,,0.00,meteohub,2013-08-12 23:04:00,
2013-08-12 19:09:00,64.6,53.8,29.14,North,0,0.0,0.0,68,0.00,,,0.00,meteohub,2013-08-12 23:09:00,
2013-08-12 19:14:00,64.4,52.9,29.14,North,0,0.0,0.0,66,0.00,,,0.00,meteohub,2013-08-12 23:14:00,
2013-08-12 19:19:00,64.4,52.3,29.14,North,0,0.0,0.0,65,0.00,,,0.00,meteohub,2013-08-12 23:19:00,
2013-08-12 19:24:00,64.0,51.3,29.14,North,0,0.0,0.0,63,0.00,,,0.00,meteohub,2013-08-12 23:24:00,
2013-08-12 19:29:00,64.0,51.3,29.14,North,0,0.0,0.0,63,0.00,,,0.00,meteohub,2013-08-12 23:29:00,
2013-08-12 19:34:00,64.0,50.7,29.14,North,0,0.0,0.0,62,0.00,,,0.00,meteohub,2013-08-12 23:34:00,
2013-08-12 19:39:00,63.9,51.1,29.14,North,0,0.0,0.0,63,0.00,,,0.00,meteohub,2013-08-12 23:39:00,
2013-08-12 19:44:00,63.9,51.1,29.14,North,0,0.0,0.0,63,0.00,,,0.00,meteohub,2013-08-12 23:44:00,
2013-08-12 19:49:00,63.9,51.1,29.14,North,0,0.0,0.0,63,0.00,,,0.00,meteohub,2013-08-12 23:49:00,
2013-08-12 19:54:00,63.9,51.1,29.14,North,0,0.0,0.0,63,0.00,,,0.00,meteohub,2013-08-12 23:54:00,
2013-08-12 19:59:00,64.0,51.3,29.14,North,0,0.0,0.0,63,0.00,,,0.00,meteohub,2013-08-12 23:59:00,
2013-08-12 20:04:00,64.0,51.6,29.14,North,0,0.0,0.0,64,0.00,,,0.00,meteohub,2013-08-13 00:04:00,
2013-08-12 20:09:00,63.9,51.4,29.14,North,0,0.0,0.0,64,0.00,,,0.00,meteohub,2013-08-13 00:09:00,
2013-08-12 20:14:00,64.0,51.6,29.14,North,0,0.0,0.0,64,0.00,,,0.00,meteohub,2013-08-13 00:14:00,
2013-08-12 20:19:00,63.9,51.8,29.14,North,0,0.0,0.0,65,0.00,,,0.00,meteohub,2013-08-13 00:19:00,
2013-08-12 20:24:00,63.9,52.3,29.14,North,0,0.0,0.0,66,0.00,,,0.00,meteohub,2013-08-13 00:24:00,
2013-08-12 20:29:00,63.9,53.1,29.14,North,0,0.0,0.0,68,0.00,,,0.00,meteohub,2013-08-13 00:29:00,
2013-08-12 20:35:00,63.9,54.0,29.14,North,0,0.0,0.0,70,0.00,,,0.00,meteohub,2013-08-13 00:35:00,
2013-08-12 20:40:00,63.5,54.3,29.14,North,0,0.0,0.0,72,0.00,,,0.00,meteohub,2013-08-13 00:40:00,
2013-08-12 20:45:00,63.5,54.3,29.14,North,0,0.0,0.0,72,0.00,,,0.00,meteohub,2013-08-13 00:45:00,
2013-08-12 20:50:00,63.1,54.0,29.14,North,0,0.0,0.0,72,0.00,,,0.00,meteohub,2013-08-13 00:50:00,
2013-08-12 20:55:00,63.1,54.3,29.14,North,0,0.0,0.0,73,0.00,,,0.00,meteohub,2013-08-13 00:55:00,
2013-08-12 21:00:00,62.8,53.6,29.14,North,0,0.0,0.0,72,0.00,,,0.00,meteohub,2013-08-13 01:00:00,
2013-08-12 21:05:00,62.6,53.8,29.14,North,0,0.0,0.0,73,0.00,,,0.00,meteohub,2013-08-13 01:05:00,
2013-08-12 21:10:00,62.6,53.8,29.14,North,0,0.0,0.0,73,0.00,,,0.00,meteohub,2013-08-13 01:10:00,
2013-08-12 21:15:00,62.4,53.6,29.14,North,0,0.0,0.0,73,0.00,,,0.00,meteohub,2013-08-13 01:15:00,
2013-08-12 21:20:00,62.2,53.4,29.14,North,0,0.0,0.0,73,0.00,,,0.00,meteohub,2013-08-13 01:20:00,
2013-08-12 21:25:00,62.1,53.2,29.14,North,0,0.0,0.0,73,0.00,,,0.00,meteohub,2013-08-13 01:25:00,
2013-08-12 21:30:00,61.7,52.9,29.14,North,0,0.0,0.0,73,0.00,,,0.00,meteohub,2013-08-13 01:30:00,
2013-08-12 21:35:00,61.7,52.9,29.14,North,0,0.0,0.0,73,0.00,,,0.00,meteohub,2013-08-13 01:35:00,
2013-08-12 21:40:00,61.3,53.1,29.14,North,0,0.0,0.0,74,0.00,,,0.00,meteohub,2013-08-13 01:40:00,
2013-08-12 21:45:00,61.2,52.9,29.14,North,0,0.0,0.0,74,0.00,,,0.00,meteohub,2013-08-13 01:45:00,
2013-08-12 21:50:00,61.0,52.7,29.14,North,0,0.0,0.0,74,0.00,,,0.00,meteohub,2013-08-13 01:50:00,
2013-08-12 21:55:00,60.8,52.5,29.14,North,0,0.0,0.0,74,0.00,,,0.00,meteohub,2013-08-13 01:55:00,
2013-08-12 22:00:00,60.6,52.3,29.14,North,0,0.0,0.0,74,0.00,,,0.00,meteohub,2013-08-13 02:00:00,
2013-08-12 22:05:00,60.6,52.3,29.14,North,0,0.0,0.0,74,0.00,,,0.00,meteohub,2013-08-13 02:05:00,
2013-08-12 22:10:00,60.3,52.0,29.14,North,0,0.0,0.0,74,0.00,,,0.00,meteohub,2013-08-13 02:10:00,
2013-08-12 22:15:00,60.1,51.8,29.14,North,0,0.0,0.0,74,0.00,,,0.00,meteohub,2013-08-13 02:15:00,
2013-08-12 22:20:00,59.7,51.4,29.14,North,0,0.0,0.0,74,0.00,,,0.00,meteohub,2013-08-13 02:20:00,
2013-08-12 22:25:00,59.5,51.3,29.14,North,0,0.0,0.0,74,0.00,,,0.00,meteohub,2013-08-13 02:25:00,
2013-08-12 22:30:00,59.2,50.9,29.14,North,0,0.0,0.0,74,0.00,,,0.00,meteohub,2013-08-13 02:30:00,
2013-08-12 22:35:00,59.0,50.7,29.14,North,0,0.0,0.0,74,0.00,,,0.00,meteohub,2013-08-13 02:35:00,
2013-08-12 22:40:00,59.0,50.7,29.14,North,0,0.0,0.0,74,0.00,,,0.00,meteohub,2013-08-13 02:40:00,
2013-08-12 22:45:00,59.0,50.7,29.14,North,0,0.0,0.0,74,0.00,,,0.00,meteohub,2013-08-13 02:45:00,
2013-08-12 22:50:00,58.6,50.4,29.14,North,0,0.0,0.0,74,0.00,,,0.00,meteohub,2013-08-13 02:50:00,
2013-08-12 22:55:00,58.5,50.2,29.14,North,0,0.0,0.0,74,0.00,,,0.00,meteohub,2013-08-13 02:55:00,
2013-08-12 23:00:00,58.3,50.0,29.14,North,0,0.0,0.0,74,0.00,,,0.00,meteohub,2013-08-13 03:00:00,
2013-08-12 23:05:00,58.1,49.8,29.14,North,0,0.0,0.0,74,0.00,,,0.00,meteohub,2013-08-13 03:05:00,
2013-08-12 23:10:00,58.1,49.8,29.14,North,0,0.0,0.0,74,0.00,,,0.00,meteohub,2013-08-13 03:10:00,
2013-08-12 23:16:00,58.1,49.8,29.14,North,0,0.0,0.0,74,0.00,,,0.00,meteohub,2013-08-13 03:16:00,
2013-08-12 23:21:00,58.1,49.8,29.14,North,0,0.0,0.0,74,0.00,,,0.00,meteohub,2013-08-13 03:21:00,
2013-08-12 23:26:00,58.1,49.8,29.14,North,0,0.0,0.0,74,0.00,,,0.00,meteohub,2013-08-13 03:26:00,
2013-08-12 23:31:00,58.1,49.8,29.14,North,0,0.0,0.0,74,0.00,,,0.00,meteohub,2013-08-13 03:31:00,
2013-08-12 23:36:00,58.1,50.2,29.14,North,0,0.0,0.0,75,0.00,,,0.00,meteohub,2013-08-13 03:36:00,
2013-08-12 23:41:00,57.7,49.5,29.14,North,0,0.0,0.0,74,0.00,,,0.00,meteohub,2013-08-13 03:41:00,
2013-08-12 23:46:00,57.4,49.1,29.14,North,0,0.0,0.0,74,0.00,,,0.00,meteohub,2013-08-13 03:46:00,
2013-08-12 23:53:00,57.2,48.9,29.14,North,0,0.0,0.0,74,0.00,,,0.00,meteohub,2013-08-13 03:53:00,
2013-08-12 23:58:00,56.8,48.6,29.14,North,0,0.0,0.0,74,0.00,,,0.00,meteohub,2013-08-13 03:58:00,